Location: Rotheul
(50.2849°N, 11.2349°E)
Time: 19:41:30
(UTC+02:00)

ISS - Pass Details

Date: 21 May 2018
Orbit: 402 x 407 km, 51.6° (Epoch: 25 May)

Event Time Altitude Azimuth Distance (km) Brightness Sun altitude
Rises 23:51:10 0° 252° (WSW) 2,314 0.0 -17.2°
Reaches altitude 10° 23:53:14 10° 252° (WSW) 1,456 -1.0 -17.3°
Maximum altitude 23:56:30 87° 162° (SSE) 408 -4.0 -17.5°
Drops below altitude 10° 23:59:46 10° 75° (ENE) 1,458 -1.1 -17.6°
Sets 00:01:51 0° 76° (ENE) 2,319 0.0 -17.7°
